Wind_Speed
24 23 22 21 19 19 18 18 18 18 20 20 20 19 18 16 13 10 8 10 9 7 7 6 2 2 2 2 3 3 5 5 3 8 11 9 4 2 4 6 5 7 5 3 5
24 24 22 22 21 20 19 19 19 20 19 20 19 19 18 15 11 9 7 9 7 5 5 5 3 3 1 2 2 3 6 3 6 11 14 11 1 1 4 1 4 3 4 5 6
26 26 25 24 23 22 22 21 22 23 20 19 18 18 16 13 10 6 5 6 5 2 5 7 5 3 5 5 2 2 1 8 5 11 13 8 1 3 2 2 2 3 5 7 10
31 30 29 28 27 27 25 24 25 22 22 18 18 16 15 12 5 4 2 3 4 2 6 7 6 11 9 6 3 2 3 4 5 8 7 7 2 1 3 3 1 3 5 8 13
32 32 30 30 30 29 29 28 26 23 22 20 18 15 14 11 6 5 2 2 4 4 9 8 8 8 4 2 1 3 1 4 1 6 2 3 3 1 5 9 9 2 7 4 11
33 32 31 30 30 31 31 30 26 25 21 19 18 15 13 10 8 7 5 1 2 6 10 8 9 8 5 3 2 3 4 4 3 7 7 6 3 5 3 8 7 4 9 17 23
29 30 31 31 31 31 31 30 28 24 21 19 18 17 13 11 10 11 8 4 1 8 8 8 9 8 6 3 4 4 3 4 3 7 4 2 4 8 8 12 10 11 14 22 18
26 26 27 27 28 29 30 29 30 25 22 19 19 17 13 12 12 15 12 7 4 8 9 9 8 8 6 5 7 2 4 4 6 9 6 2 1 8 10 9 8 12 12 17 18
27 25 24 23 22 23 25 28 28 26 22 22 21 17 14 13 16 20 16 11 7 8 11 12 11 7 9 6 5 1 1 2 4 6 4 4 0 6 7 7 7 8 13 11 15
30 27 24 23 20 18 20 22 24 25 22 24 21 18 16 13 22 23 20 15 10 8 8 11 14 10 11 5 2 1 2 5 7 7 8 4 4 1 5 4 6 8 9 13 14
34 32 28 25 23 22 21 23 24 25 23 25 16 9 12 17 24 25 22 17 13 9 8 5 6 8 10 5 2 3 5 3 4 9 12 7 6 4 3 1 4 8 10 13 15
38 35 32 29 25 22 20 22 24 25 28 25 23 25 20 17 26 29 26 22 18 12 10 5 5 8 8 7 5 3 6 3 1 4 15 12 12 10 7 1 2 6 11 15 15
43 38 34 33 30 25 21 22 20 22 26 26 25 27 21 25 27 32 30 23 19 17 11 7 9 8 7 7 9 6 5 8 8 5 7 10 13 14 12 10 10 11 11 16 15
46 43 37 34 31 27 27 21 18 16 14 19 15 24 22 28 29 32 32 25 22 18 12 8 10 6 6 6 10 9 10 8 10 2 3 11 5 11 15 12 15 15 17 16 17
51 46 41 37 32 26 24 18 11 10 4 7 16 21 17 32 22 35 34 30 26 22 18 10 9 7 5 3 8 11 12 7 8 4 4 7 3 4 3 8 13 15 17 18 19
55 49 44 43 35 26 24 19 10 8 8 6 8 14 20 31 31 30 37 32 27 22 19 16 9 6 6 9 12 15 9 8 6 3 2 5 7 5 8 7 11 12 16 17 17
58 54 49 46 39 29 26 19 13 11 4 8 9 12 18 30 29 26 40 37 32 25 25 20 15 10 10 10 14 14 11 3 1 2 3 5 5 11 5 10 14 15 12 12 15
58 56 53 49 43 35 28 24 17 13 32 7 3 7 16 24 31 24 38 38 35 27 22 19 10 15 10 6 9 12 13 7 3 3 2 6 6 4 9 14 15 14 12 15 18
53 53 58 54 47 39 34 34 23 29 10 31 24 8 18 23 28 26 27 40 38 37 20 19 15 12 10 9 9 12 13 11 7 3 2 4 8 9 8 11 12 4 8 10 11
47 52 59 56 49 43 41 45 35 25 30 17 18 14 13 23 28 37 24 27 40 35 31 15 7 16 14 11 11 11 11 6 6 4 3 3 5 6 8 7 8 5 2 4 6
43 50 61 54 48 43 52 51 42 28 28 33 20 14 21 18 28 25 30 17 29 31 31 28 19 12 13 18 17 15 13 9 7 4 3 3 5 6 7 10 10 3 4 6 6
49 50 65 46 46 52 65 52 34 44 34 31 27 17 20 17 21 30 31 30 18 30 32 27 18 19 20 16 16 21 17 16 6 5 9 7 13 19 12 12 11 9 11 9 9
52 47 55 47 51 51 60 58 47 36 41 37 33 19 13 9 13 21 29 23 24 26 31 28 22 17 13 17 18 17 17 15 17 20 17 9 10 9 14 11 12 14 12 13 12
55 42 41 43 59 63 46 45 44 50 38 40 36 29 15 13 12 10 22 24 24 19 27 25 30 24 24 22 19 23 27 23 22 17 19 25 27 20 14 15 16 18 16 16 17
59 39 47 54 59 63 55 48 55 49 47 46 43 42 30 24 7 15 14 21 23 30 31 26 23 23 24 28 28 27 27 22 24 24 23 23 27 20 17 14 16 17 17 15 13
49 45 47 54 62 62 41 50 52 55 49 42 44 44 35 36 18 12 11 16 17 27 27 34 29 25 24 24 29 27 27 27 24 23 24 26 28 22 20 18 16 16 17 18 16
66 49 58 57 47 53 64 44 39 49 51 39 43 37 35 34 32 23 14 10 13 16 24 29 28 24 21 21 24 26 30 25 26 26 26 30 31 26 24 21 21 21 18 17 18
Wind_Direction
269 269 269 269 269 273 280 288 297 304 311 314 317 323 325 325 318 312 313 330 334 340 1 20 98 125 165 230 275 234 249 253 336 1 352 351 291 299 277 250 223 215 240 235 205
268 267 266 267 266 269 275 283 291 296 303 308 312 317 321 323 312 308 319 337 338 349 35 71 101 134 207 274 248 218 260 307 326 330 331 335 242 232 347 187 221 242 275 268 240
260 262 264 265 266 269 273 278 283 289 297 302 305 311 316 318 304 294 325 347 349 31 96 121 139 104 58 65 103 43 335 320 338 326 325 328 287 198 135 182 212 214 281 283 257
263 259 261 262 264 267 268 271 277 283 290 294 298 305 309 309 287 279 322 8 8 153 128 146 133 108 94 96 74 30 16 342 343 338 335 27 73 295 196 102 221 284 287 263 235
259 261 260 262 265 266 268 269 274 277 284 289 290 296 301 294 266 233 182 35 30 165 148 148 152 145 145 156 306 318 247 253 356 331 59 69 104 223 242 241 123 229 309 165 178
260 259 259 260 262 263 265 267 268 272 275 281 284 288 291 283 243 209 179 137 14 160 164 169 175 179 189 262 281 279 220 208 322 82 36 24 50 1 119 143 120 129 106 109 130
260 260 259 256 256 259 261 265 265 264 268 273 276 281 282 257 227 196 180 175 165 173 179 201 199 198 216 269 295 280 213 306 183 177 191 77 39 51 115 125 140 138 123 125 131
255 256 256 257 257 256 259 261 264 263 263 266 267 273 277 254 217 190 183 179 177 190 207 231 234 221 252 273 300 292 237 315 176 170 192 199 43 63 109 110 130 151 128 137 136
250 248 250 250 252 259 263 262 261 262 261 261 263 268 264 245 206 188 186 187 183 201 228 237 255 250 251 282 301 223 211 340 137 169 205 217 62 72 81 134 132 154 170 149 146
247 245 245 247 252 261 270 274 269 266 259 259 258 262 248 223 202 191 189 191 191 194 228 246 255 260 244 228 243 190 223 232 204 223 231 234 243 60 58 127 153 165 165 172 147
248 247 245 249 255 262 266 272 274 272 259 253 237 214 245 218 203 193 194 192 196 196 207 222 249 243 193 191 149 134 148 135 220 233 248 257 268 312 300 263 161 171 170 158 152
243 246 249 250 251 254 266 274 273 269 263 254 245 238 231 222 206 197 195 192 193 191 191 180 148 138 170 184 186 161 167 97 278 331 228 248 250 258 253 263 181 176 176 165 169
241 242 247 252 255 254 263 269 272 269 276 255 247 238 221 223 212 200 200 195 191 188 181 176 157 165 185 194 200 202 150 23 358 317 218 237 254 253 249 230 208 188 182 188 190
238 239 239 247 252 252 252 264 264 266 284 263 254 240 228 222 219 205 202 203 193 195 192 210 195 215 241 247 234 224 205 338 2 235 208 234 261 259 248 239 227 210 199 199 204
234 236 236 238 243 249 246 251 242 237 289 234 221 215 217 211 220 205 202 205 204 196 195 193 189 193 214 256 250 243 208 281 317 254 198 208 220 246 266 262 261 246 232 214 208
230 230 233 235 235 240 237 228 210 208 245 233 208 213 212 201 206 206 202 205 207 209 207 206 218 225 236 267 236 245 247 291 295 213 211 196 213 248 250 316 304 273 256 247 235
224 225 226 230 230 225 228 205 204 214 226 234 224 214 209 198 194 204 201 204 206 205 213 218 225 231 254 268 227 231 229 299 222 145 203 209 213 248 288 312 306 285 258 235 237
220 218 219 223 225 216 211 191 214 229 223 179 155 232 210 203 197 202 206 206 211 213 211 214 227 230 234 234 207 217 232 210 215 187 170 193 222 236 291 300 304 286 278 256 256
232 215 213 216 217 213 199 202 222 209 179 222 246 280 223 208 207 197 205 214 216 214 203 206 224 218 241 240 220 223 209 219 213 204 228 227 248 286 300 322 316 290 282 259 261
228 221 210 209 212 206 199 216 222 208 208 222 235 226 239 213 206 207 203 215 219 218 212 206 199 221 231 219 212 215 225 183 198 170 234 263 266 266 300 317 303 298 319 294 271
218 226 213 205 198 195 206 218 218 198 207 217 230 221 234 230 214 211 211 202 213 215 215 220 227 227 219 216 218 220 216 219 206 198 196 236 250 277 280 296 293 293 330 339 341
214 219 221 207 185 201 215 212 207 209 206 211 219 216 220 226 221 217 218 224 221 216 208 216 229 230 242 241 237 229 236 235 227 231 232 249 263 279 286 278 272 279 303 303 297
212 216 217 213 197 205 215 216 215 205 206 215 217 211 205 199 212 220 221 225 216 213 211 213 216 210 228 238 227 222 225 249 276 281 257 239 254 265 286 270 274 289 281 294 292
203 198 196 204 209 212 211 216 209 213 211 212 213 206 213 211 190 204 220 222 209 204 213 221 227 231 232 243 243 240 251 260 268 249 247 249 272 281 279 280 276 264 265 269 278
194 194 191 192 207 213 216 216 210 212 215 216 219 224 222 237 241 211 208 215 217 221 228 231 232 241 249 249 253 248 246 249 265 256 245 279 279 275 275 284 302 273 259 259 272
193 193 194 199 205 210 208 214 216 215 215 211 218 227 226 228 221 179 180 217 227 228 229 234 239 241 248 246 248 247 245 253 249 252 261 272 275 280 274 275 284 274 267 255 260
202 196 198 195 201 207 214 211 211 219 219 226 226 222 225 228 231 229 244 259 229 225 229 227 224 225 228 247 248 240 242 240 248 258 266 271 282 278 271 265 266 267 272 268 257
Height
3148 3149 3149 3148 3148 3149 3149 3149 3148 3148 3147 3147 3146 3144 3142 3139 3137 3136 3135 3134 3132 3130 3129 3127 3128 3129 3129 3130 3131 3131 3132 3130 3131 3131 3130 3128 3127 3128 3128 3128 3127 3128 3127 3128 3129
3143 3145 3145 3145 3145 3145 3145 3145 3145 3145 3143 3144 3142 3141 3139 3137 3135 3134 3133 3132 3130 3129 3129 3128 3129 3129 3130 3130 3131 3131 3131 3131 3131 3131 3129 3128 3128 3129 3129 3127 3127 3126 3126 3127 3127
3136 3138 3140 3140 3141 3140 3140 3140 3141 3141 3140 3139 3139 3138 3136 3134 3134 3133 3131 3130 3129 3130 3128 3129 3130 3130 3130 3130 3131 3131 3131 3130 3130 3129 3127 3125 3126 3128 3127 3128 3127 3126 3125 3124 3124
3132 3131 3133 3134 3135 3135 3135 3135 3135 3136 3137 3135 3136 3135 3134 3132 3134 3131 3130 3129 3128 3129 3129 3129 3130 3131 3130 3130 3130 3131 3130 3130 3129 3128 3127 3126 3126 3126 3129 3128 3127 3126 3124 3121 3122
3123 3126 3127 3128 3129 3130 3130 3130 3131 3131 3132 3133 3132 3131 3131 3130 3129 3129 3129 3129 3128 3128 3129 3130 3130 3131 3131 3130 3130 3130 3130 3128 3129 3129 3129 3127 3127 3127 3127 3127 3126 3126 3123 3120 3122
3118 3119 3120 3121 3122 3124 3124 3125 3124 3127 3127 3129 3129 3128 3127 3127 3126 3126 3127 3127 3127 3127 3129 3130 3131 3131 3131 3130 3130 3129 3128 3128 3129 3128 3130 3128 3128 3127 3125 3125 3127 3128 3126 3122 3123
3112 3113 3114 3114 3115 3117 3117 3119 3119 3120 3122 3124 3124 3124 3123 3124 3123 3123 3124 3125 3126 3127 3128 3129 3130 3131 3131 3130 3129 3128 3128 3127 3128 3128 3131 3129 3130 3129 3127 3126 3128 3131 3129 3127 3129
3106 3107 3108 3109 3109 3109 3111 3112 3114 3116 3117 3118 3119 3119 3119 3119 3120 3121 3122 3123 3124 3126 3127 3128 3129 3130 3130 3130 3129 3128 3128 3128 3128 3128 3130 3130 3131 3129 3128 3128 3129 3131 3132 3132 3132
3101 3102 3103 3103 3104 3104 3105 3107 3108 3110 3111 3113 3115 3115 3115 3116 3117 3119 3120 3121 3122 3124 3125 3126 3128 3128 3129 3129 3129 3128 3128 3128 3128 3128 3129 3130 3130 3130 3129 3129 3130 3131 3133 3134 3133
3095 3097 3098 3099 3100 3100 3101 3103 3103 3105 3106 3108 3109 3113 3111 3111 3112 3115 3116 3118 3120 3121 3124 3125 3125 3125 3127 3128 3128 3127 3128 3128 3128 3130 3129 3129 3130 3130 3131 3131 3131 3132 3133 3134 3136
3090 3092 3093 3094 3094 3096 3097 3098 3101 3101 3100 3103 3104 3105 3107 3108 3110 3111 3114 3115 3117 3119 3121 3122 3123 3123 3125 3126 3127 3127 3127 3127 3128 3129 3128 3129 3129 3130 3131 3132 3132 3132 3133 3135 3136
3082 3086 3089 3089 3090 3091 3092 3093 3095 3094 3093 3095 3097 3099 3102 3104 3106 3109 3111 3111 3113 3116 3119 3121 3121 3122 3123 3125 3126 3126 3126 3127 3127 3126 3127 3128 3128 3128 3130 3132 3133 3133 3134 3135 3136
3074 3078 3083 3084 3085 3088 3088 3089 3091 3088 3087 3088 3090 3091 3096 3099 3101 3104 3110 3108 3110 3113 3116 3118 3120 3121 3122 3123 3124 3124 3125 3125 3125 3123 3124 3125 3126 3126 3127 3130 3132 3133 3134 3135 3136
3064 3069 3074 3078 3082 3083 3084 3087 3087 3085 3084 3082 3081 3084 3089 3092 3094 3101 3105 3109 3107 3110 3113 3116 3117 3118 3120 3120 3123 3122 3122 3123 3123 3123 3123 3124 3125 3123 3124 3126 3128 3130 3131 3133 3134
3053 3061 3066 3069 3073 3078 3081 3083 3083 3084 3087 3075 3072 3075 3080 3086 3090 3094 3101 3104 3104 3106 3110 3113 3113 3115 3117 3118 3120 3122 3121 3121 3121 3121 3122 3122 3124 3122 3123 3125 3125 3125 3127 3130 3131
3039 3049 3056 3060 3067 3073 3074 3078 3081 3086 3076 3070 3068 3069 3075 3079 3084 3091 3097 3100 3104 3105 3105 3108 3110 3112 3113 3115 3116 3118 3119 3118 3119 3119 3121 3120 3122 3121 3121 3121 3121 3122 3124 3126 3128
3022 3035 3045 3051 3059 3066 3068 3071 3079 3073 3068 3068 3066 3066 3069 3074 3080 3085 3089 3092 3097 3100 3100 3104 3107 3108 3110 3111 3112 3115 3117 3119 3119 3118 3118 3118 3120 3118 3119 3118 3118 3117 3118 3119 3121
3005 3017 3030 3040 3050 3056 3061 3065 3063 3055 3061 3064 3065 3063 3065 3071 3078 3080 3085 3088 3093 3097 3098 3101 3105 3105 3107 3108 3109 3112 3115 3116 3117 3117 3116 3117 3116 3116 3116 3115 3114 3113 3113 3114 3114
2996 3000 3013 3027 3038 3046 3051 3054 3040 3045 3053 3059 3061 3061 3065 3067 3074 3076 3080 3082 3087 3092 3096 3097 3101 3102 3104 3105 3107 3109 3112 3113 3112 3114 3115 3112 3111 3112 3112 3111 3111 3109 3109 3109 3109
2984 2991 2997 3013 3026 3034 3039 3033 3034 3038 3047 3052 3054 3059 3061 3062 3068 3071 3075 3076 3081 3087 3092 3096 3098 3099 3101 3102 3104 3106 3109 3111 3110 3112 3112 3109 3108 3108 3109 3109 3109 3108 3107 3106 3106
2975 2981 2988 3000 3014 3021 3018 3017 3025 3033 3040 3049 3048 3054 3057 3058 3062 3065 3069 3073 3078 3082 3088 3092 3095 3098 3098 3098 3100 3103 3104 3106 3107 3107 3107 3108 3107 3107 3107 3106 3106 3106 3105 3104 3104
2964 2967 2979 2992 3002 3002 3000 3007 3017 3025 3035 3038 3043 3051 3053 3056 3057 3061 3064 3069 3073 3077 3082 3088 3090 3091 3095 3096 3097 3098 3100 3102 3102 3104 3103 3103 3102 3103 3103 3103 3103 3103 3103 3103 3103
2952 2960 2966 2983 2988 2990 2994 3000 3009 3019 3026 3029 3038 3047 3049 3052 3054 3056 3060 3066 3070 3072 3077 3083 3084 3087 3089 3092 3092 3093 3096 3098 3098 3098 3097 3099 3099 3099 3100 3100 3100 3100 3100 3100 3100
2944 2949 2955 2968 2979 2984 2989 2991 2999 3010 3019 3025 3033 3040 3044 3048 3050 3052 3056 3062 3066 3069 3074 3077 3079 3080 3082 3084 3089 3090 3090 3091 3093 3093 3092 3091 3092 3095 3095 3095 3095 3095 3095 3095 3095
2929 2934 2939 2944 2964 2975 2981 2985 2991 3000 3010 3020 3024 3032 3039 3046 3048 3049 3052 3057 3061 3065 3069 3071 3073 3075 3077 3079 3081 3082 3084 3086 3086 3087 3087 3088 3086 3089 3089 3090 3090 3089 3089 3090 3090
2918 2925 2936 2940 2955 2966 2972 2974 2980 2994 3002 3008 3014 3026 3034 3039 3045 3046 3047 3051 3055 3059 3063 3066 3067 3070 3071 3073 3075 3076 3078 3079 3081 3081 3080 3081 3080 3084 3084 3085 3085 3084 3084 3084 3085
2907 2920 2930 2932 2941 2956 2956 2971 2980 2991 2998 3005 3012 3020 3027 3035 3040 3041 3043 3047 3050 3052 3056 3059 3061 3064 3066 3067 3069 3068 3070 3073 3075 3075 3076 3074 3076 3077 3077 3078 3079 3080 3080 3080 3080